Location: ASU Dark Sky Observatory
(36.2504°N, 81.4125°W)
Time: 16:32:08
(UTC-04:00)

Amateur Radio Satellites - All Passes

Search period start: 30 May 2015 16:02
Search period end: 31 May 2015 16:02
Location: ASU Dark Sky Observatory, 36.2504°N, 81.4125°W

Satellite Date Start Highest point End Downlink Frequencies (MHz)
Time Altitude Azimuth
JAS-2 30 May 16:08:55 16:15:25 62° 74° (ENE) 16:21:11 435.910
STARS 30 May 16:36:35 16:41:00 74° 102° (ESE) 16:45:23 437.465
ITUPSAT 1 30 May 16:38:55 16:41:20 14° 294° (WNW) 16:43:31 437.325
BEESAT 2 30 May 16:42:51 16:45:04 15° 110° (ESE) 16:47:29 435.950
BEESAT 30 May 16:44:40 16:46:23 12° 295° (WNW) 16:47:50 436.000
YUBILEINY 30 May 17:07:26 17:08:00 10° 57° (ENE) 17:09:25 435.215
HORYU 2 30 May 17:08:07 17:12:05 30° 264° (W) 17:15:59 437.375
KKS-1 30 May 17:19:20 17:22:53 23° 290° (WNW) 17:26:18 437.445
BEESAT 3 30 May 17:24:28 17:28:27 58° 117° (ESE) 17:32:30 437.485
Cubesat XI-IV 30 May 17:27:38 17:28:55 11° 62° (ENE) 17:30:33 437.490
MOZHAYETS 4 30 May 17:39:40 17:44:02 45° 98° (E) 17:48:26
Cosmos 2499 30 May 17:45:43 17:49:06 12° 296° (WNW) 17:51:49 435.465 / 435.565
AO-7 30 May 17:51:26 17:58:42 32° 264° (W) 18:05:48 29.400- 29.500
JAS-2 30 May 17:56:27 18:00:50 18° 267° (W) 18:04:39 435.910
RS-15 30 May 17:58:18 18:09:51 64° 55° (NE) 18:21:54 29.354- 29.394
BEESAT 2 30 May 18:18:56 18:22:50 42° 304° (NW) 18:26:47 435.950
AIST 2 30 May 18:34:21 18:38:35 74° 119° (ESE) 18:42:52 435.215
CUTE-I 30 May 18:41:20 18:46:31 58° 74° (ENE) 18:51:46 437.470
YUBILEINY 30 May 18:58:21 19:07:00 66° 80° (E) 19:15:39 435.215
Cosmos 2491 30 May 19:00:39 19:08:25 38° 88° (E) 19:16:24 435.465 / 435.565
Cubesat XI-IV 30 May 19:03:04 19:08:22 86° 253° (WSW) 19:13:44 437.490
BEESAT 3 30 May 19:04:45 19:06:51 13° 314° (NW) 19:08:49 437.485
PRISM 30 May 19:10:25 19:11:21 11° 90° (E) 19:12:34 437.425
STRAND 1 30 May 19:12:36 19:14:51 13° 90° (E) 19:17:24 437.568
MOZHAYETS 4 30 May 19:18:07 19:20:57 16° 292° (WNW) 19:23:35
BRITE-PL 30 May 19:25:48 19:28:28 15° 64° (ENE) 19:31:29 437.365/2234.400
CUBESAT XI-V 30 May 19:29:35 19:34:13 54° 100° (E) 19:38:50 437.345
HO-68 30 May 19:53:54 19:58:54 22° 61° (ENE) 20:04:09 435.675
RS-15 30 May 20:11:32 20:21:51 35° 253° (WSW) 20:32:07 29.354- 29.394
AIST 2 30 May 20:15:59 20:17:43 12° 316° (NW) 20:19:18 435.215
CANX-2 30 May 20:17:13 20:19:33 15° 69° (ENE) 20:22:04 2200.000
CUTE 1.7 + AOD 2 30 May 20:20:13 20:22:27 15° 68° (ENE) 20:24:53 437.475
CUTE-I 30 May 20:23:59 20:27:04 15° 270° (W) 20:29:52 437.470
AIST 1 30 May 20:30:08 20:34:05 39° 92° (E) 20:38:06
CINEMA 3 30 May 20:33:51 20:35:54 13° 66° (ENE) 20:38:15 145.822/145.860
SEEDS 30 May 20:35:41 20:38:27 18° 70° (ENE) 20:41:20 437.485
COMPASS 1 30 May 20:42:22 20:44:57 17° 69° (ENE) 20:47:41 437.405
GOMX 1 30 May 20:42:38 20:47:38 51° 74° (ENE) 20:52:56 467.674
PRISM 30 May 20:43:06 20:47:10 51° 286° (WNW) 20:51:13 437.425
M-CUBED/EXP-1 PRIME 30 May 20:49:13 20:52:25 46° 105° (ESE) 20:55:42 437.505
STRAND 1 30 May 20:49:27 20:54:33 62° 286° (WNW) 20:59:38 437.568
AAUSAT CUBESAT 2 30 May 20:50:45 20:53:28 18° 70° (ENE) 20:56:19 437.432
AUBIESAT-1 30 May 20:53:21 20:56:32 44° 104° (ESE) 20:59:49 437.475
YUBILEINY 30 May 20:56:40 21:03:11 23° 276° (W) 21:09:18 435.215
Cosmos 2491 30 May 20:56:57 21:05:12 42° 285° (WNW) 21:13:26 435.465 / 435.565
CUBEBUG 2 30 May 20:58:49 20:59:37 11° 65° (ENE) 21:00:42 437.445
BRITE-PL 30 May 21:01:12 21:06:19 69° 260° (W) 21:11:52 437.365/2234.400
CUBESAT XI-V 30 May 21:08:40 21:11:15 14° 293° (WNW) 21:13:37 437.345
ISS 30 May 21:15:36 21:17:03 13° 129° (SE) 21:18:37 145.825
DOVE 4 30 May 21:23:01 21:28:11 84° 75° (ENE) 21:33:32 437.250
Cosmos 2504 30 May 21:23:50 21:30:50 56° 79° (E) 21:37:58 435.465 / 435.565
FUNcube-1 30 May 21:34:04 21:36:37 15° 68° (ENE) 21:39:22 145.935
UWE-3 30 May 21:34:28 21:37:52 21° 70° (ENE) 21:41:24 435.000/436.395/437.385
HO-68 30 May 21:38:54 21:46:03 69° 257° (WSW) 21:53:14 435.675
CANX-2 30 May 21:51:09 21:55:10 40° 262° (W) 21:59:12 2200.000
CUTE 1.7 + AOD 2 30 May 21:54:01 21:58:04 42° 262° (W) 22:02:06 437.475
CINEMA 3 30 May 22:07:35 22:12:34 70° 260° (W) 22:17:36 145.822/145.860
UKube-1 30 May 22:09:22 22:11:57 16° 68° (ENE) 22:14:43 .
AIST 1 30 May 22:09:36 22:11:59 14° 289° (WNW) 22:14:12
SEEDS 30 May 22:10:12 22:14:02 33° 263° (W) 22:17:50 437.485
ZACube-1 30 May 22:14:28 22:18:48 43° 74° (ENE) 22:23:09 437.345
COMPASS 1 30 May 22:16:33 22:20:24 34° 263° (W) 22:24:12 437.405
Oscar 11 30 May 22:17:15 22:21:35 85° 78° (ENE) 22:25:56 145.826/435.025
GOMX 1 30 May 22:22:32 22:26:08 18° 271° (W) 22:29:37 467.674
DX 1 30 May 22:23:24 22:26:55 25° 70° (ENE) 22:30:33 434.975-435.025
DELFI C3 30 May 22:23:31 22:27:31 71° 77° (ENE) 22:31:32 145.870
AAUSAT CUBESAT 2 30 May 22:25:07 22:28:53 32° 264° (W) 22:32:36 437.432
CUBEBUG 2 30 May 22:30:59 22:35:45 76° 260° (W) 22:40:30 437.445
ISS 30 May 22:50:02 22:53:10 50° 322° (NW) 22:56:21 145.825
UNISAT 6 30 May 22:52:47 22:54:06 11° 89° (E) 22:55:43 437.425
VELOX 1 30 May 22:53:53 22:57:34 27° 70° (ENE) 23:01:20 145.980
50 SAT 30 May 23:06:52 23:10:35 39° 74° (ENE) 23:14:19 437.505
FUNcube-1 30 May 23:08:11 23:12:37 47° 261° (W) 23:17:00 145.935
HUMSAT D 30 May 23:09:40 23:14:00 83° 75° (ENE) 23:18:18 437.325/437.525
UWE-3 30 May 23:09:54 23:14:12 35° 263° (W) 23:18:27 435.000/436.395/437.385
ESTCUBE 1 30 May 23:13:34 23:17:12 26° 71° (ENE) 23:20:58 437.505/2401.250
Cosmos 2504 30 May 23:18:27 23:23:44 22° 274° (W) 23:28:46 435.465 / 435.565
AISAT 30 May 23:26:16 23:30:41 66° 75° (ENE) 23:35:08 437.250
GONETS M04 30 May 23:28:49 23:35:14 23° 67° (ENE) 23:41:59
ANTELSAT 30 May 23:34:03 23:38:03 37° 97° (E) 23:42:01 437.575/2403.000
QB50P1 30 May 23:37:28 23:40:11 17° 92° (E) 23:43:02 145.935-145.965
POLYITAN 1 30 May 23:41:38 23:44:40 19° 93° (E) 23:47:48 437.675
UKube-1 30 May 23:43:44 23:47:48 39° 262° (W) 23:51:53 .
DANDE 30 May 23:48:57 23:55:19 33° 68° (ENE) 00:00:27 436.750
CUSAT 1 30 May 23:51:19 23:57:30 41° 72° (ENE) 00:02:16 437.405
ZACube-1 30 May 23:52:32 23:55:24 16° 269° (W) 23:58:03 437.345
PCSat 30 May 23:55:05 23:59:50 33° 110° (ESE) 00:04:41 145.827
DX 1 30 May 23:59:29 00:03:07 25° 265° (W) 00:06:40 434.975-435.025
TIGRISAT 31 May 00:04:35 00:08:57 85° 105° (ESE) 00:13:12 435.000
VERMONT LUNAR 31 May 00:04:53 00:07:52 33° 151° (SSE) 00:10:51 437.305
NANOSAT C BR1 31 May 00:06:13 00:10:09 36° 97° (E) 00:14:06 145.865
CUBEBUG 1 31 May 00:15:11 00:19:31 72° 258° (WSW) 00:23:55 437.445
QB50P2 31 May 00:17:20 00:21:31 52° 100° (E) 00:25:40 145.880/145.840
DUCHIFAT 1 31 May 00:26:45 00:30:59 65° 101° (E) 00:35:11 145.980
UNISAT 6 31 May 00:27:06 00:31:18 50° 286° (WNW) 00:35:25 437.425
POPSAT HIP 1 31 May 00:28:25 00:32:42 70° 101° (E) 00:36:55 437.405
BUGSAT 1 31 May 00:30:19 00:34:26 47° 99° (E) 00:38:31 437.445
VELOX 1 31 May 00:30:28 00:34:06 24° 265° (W) 00:37:39 145.980
SPROUT 31 May 00:37:23 00:41:33 51° 75° (ENE) 00:45:48 437.525
50 SAT 31 May 00:43:32 00:45:30 13° 269° (W) 00:47:16 437.505
TISAT 1 31 May 00:43:49 00:47:50 43° 74° (ENE) 00:51:54 437.305
ESTCUBE 1 31 May 00:50:19 00:54:03 25° 265° (W) 00:57:42 437.505/2401.250
ANTELSAT 31 May 01:11:45 01:14:34 17° 292° (WNW) 01:17:12 437.575/2403.000
QB50P1 31 May 01:12:18 01:16:11 34° 288° (WNW) 01:20:00 145.935-145.965
POLYITAN 1 31 May 01:16:53 01:20:39 30° 288° (WNW) 01:24:19 437.675
SO-50 31 May 01:24:10 01:25:00 11° 108° (ESE) 01:26:10 436.795
GONETS M04 31 May 01:24:16 01:32:59 69° 267° (W) 01:41:34
PHONESAT 2.4 31 May 01:25:41 01:28:58 38° 151° (SSE) 01:32:16 2401.200-2431.200
DANDE 31 May 01:32:14 01:38:33 35° 273° (W) 01:43:28 436.750
CUSAT 1 31 May 01:34:53 01:39:38 22° 276° (W) 01:43:25 437.405
PCSat 31 May 01:38:28 01:43:15 31° 306° (NW) 01:48:01 145.827
Cosmos 2499 31 May 01:41:24 01:47:06 27° 72° (ENE) 01:53:08 435.465 / 435.565
VERMONT LUNAR 31 May 01:41:47 01:44:58 55° 346° (NNW) 01:48:09 437.305
NANOSAT C BR1 31 May 01:42:59 01:45:44 16° 292° (WNW) 01:48:19 145.865
BEESAT 3 31 May 01:46:26 01:49:07 17° 48° (NE) 01:51:53 437.485
O/OREOS (USA 219) 31 May 01:47:13 01:51:42 83° 251° (WSW) 01:56:10 437.305
QB50P2 31 May 01:55:15 01:56:59 12° 293° (WNW) 01:58:31 145.880/145.840
ITUPSAT 1 31 May 02:03:23 02:07:58 50° 73° (ENE) 02:12:35 437.325
BUGSAT 1 31 May 02:07:24 02:09:32 13° 293° (WNW) 02:11:27 437.445
BEESAT 31 May 02:08:07 02:12:46 58° 74° (ENE) 02:17:27 436.000
Oscar 19 31 May 02:12:05 02:16:28 29° 95° (E) 02:20:54 437.125/150
SPROUT 31 May 02:16:21 02:18:01 12° 270° (W) 02:19:25 437.525
SWISSCUBE 31 May 02:17:15 02:21:58 81° 78° (ENE) 02:26:46 437.505
TISAT 1 31 May 02:21:38 02:23:52 13° 269° (W) 02:25:53 437.305
ITAMSAT 1 31 May 02:37:32 02:39:52 13° 90° (E) 02:42:30 435.822/435.867
KKS-1 31 May 02:38:44 02:41:56 20° 69° (ENE) 02:45:17 437.445
BEESAT 2 31 May 02:40:22 02:44:21 49° 57° (ENE) 02:48:16 435.950
AIST 2 31 May 02:59:08 03:02:29 23° 50° (NE) 03:05:50 435.215
SO-50 31 May 03:00:19 03:04:57 72° 301° (WNW) 03:09:47 436.795
PHONESAT 2.4 31 May 03:03:35 03:07:02 55° 346° (NNW) 03:10:28 2401.200-2431.200
VERMONT LUNAR 31 May 03:19:26 03:22:28 36° 2° (N) 03:25:29 437.305
BEESAT 3 31 May 03:23:30 03:27:18 39° 245° (WSW) 03:31:02 437.485
STARS 31 May 03:30:46 03:34:59 46° 74° (ENE) 03:39:17 437.465
Cosmos 2499 31 May 03:33:49 03:40:31 46° 269° (W) 03:47:21 435.465 / 435.565
Gurwin Techsat 1B 31 May 03:39:03 03:44:16 56° 100° (E) 03:49:30 435.225
ITUPSAT 1 31 May 03:43:34 03:46:13 14° 269° (W) 03:48:37 437.325
ISS 31 May 03:45:07 03:45:47 10° 20° (NNE) 03:46:31 145.825
BEESAT 31 May 03:49:02 03:51:04 12° 270° (W) 03:52:48 436.000
Oscar 19 31 May 03:51:20 03:55:48 29° 290° (WNW) 04:00:09 437.125/150
AO-7 31 May 04:03:54 04:09:00 18° 90° (E) 04:14:35 29.400- 29.500
KKS-1 31 May 04:14:18 04:18:23 33° 263° (W) 04:22:26 437.445
ITAMSAT 1 31 May 04:14:42 04:19:53 63° 286° (WNW) 04:25:02 435.822/435.867
BEESAT 2 31 May 04:20:22 04:22:03 12° 251° (WSW) 04:23:30 435.950
AIST 2 31 May 04:37:23 04:41:05 30° 247° (WSW) 04:44:40 435.215
MOZHAYETS 4 31 May 04:39:16 04:43:15 31° 72° (ENE) 04:47:18
PHONESAT 2.4 31 May 04:42:10 04:45:29 39° 3° (N) 04:48:46 2401.200-2431.200
SO-50 31 May 04:45:46 04:46:30 10° 321° (NW) 04:47:00 436.795
VERMONT LUNAR 31 May 04:56:40 04:59:53 76° 19° (NNE) 05:03:04 437.305
HORYU 2 31 May 05:01:18 05:05:42 62° 101° (E) 05:10:03 437.375
JAS-2 31 May 05:05:20 05:10:32 64° 101° (ESE) 05:16:03 435.910
STARS 31 May 05:09:21 05:11:44 14° 269° (W) 05:13:55 437.465
Cosmos 2491 31 May 05:15:42 05:20:13 15° 62° (ENE) 05:25:21 435.465 / 435.565
ISS 31 May 05:19:36 05:22:49 55° 39° (NE) 05:26:01 145.825
Gurwin Techsat 1B 31 May 05:20:26 05:23:51 17° 294° (WNW) 05:27:04 435.225
AO-7 31 May 05:54:23 06:02:47 82° 288° (WNW) 06:11:09 29.400- 29.500
YUBILEINY 31 May 06:05:15 06:08:27 13° 80° (E) 06:12:23 435.215
MOZHAYETS 4 31 May 06:17:00 06:20:32 21° 267° (W) 06:23:57
PHONESAT 2.4 31 May 06:20:20 06:23:49 84° 19° (NNE) 06:27:17 2401.200-2431.200
STRAND 1 31 May 06:26:06 06:28:57 16° 65° (ENE) 06:32:03 437.568
CUBESAT XI-V 31 May 06:30:32 06:34:44 38° 73° (ENE) 06:39:02 437.345
VERMONT LUNAR 31 May 06:34:22 06:36:50 20° 213° (SSW) 06:39:15 437.305
HORYU 2 31 May 06:40:30 06:41:52 11° 295° (WNW) 06:42:59 437.375
JAS-2 31 May 06:52:40 06:55:18 14° 295° (WNW) 06:57:41 435.910
ISS 31 May 06:57:37 06:58:55 12° 232° (SW) 07:00:07 145.825
CUTE-I 31 May 07:01:30 07:06:05 29° 95° (E) 07:10:44 437.470
Cosmos 2491 31 May 07:09:48 07:18:41 86° 85° (E) 07:27:28 435.465 / 435.565
Cubesat XI-IV 31 May 07:23:07 07:28:17 48° 99° (E) 07:33:29 437.490
PRISM 31 May 07:30:19 07:34:23 79° 77° (ENE) 07:38:29 437.425
M-CUBED/EXP-1 PRIME 31 May 07:34:50 07:38:47 45° 71° (ENE) 07:42:27 437.505
AUBIESAT-1 31 May 07:38:34 07:42:25 43° 70° (ENE) 07:46:02 437.475
AO-7 31 May 07:49:27 07:54:31 17° 305° (NW) 07:59:09 29.400- 29.500
YUBILEINY 31 May 07:55:23 08:04:09 82° 95° (E) 08:12:55 435.215
PHONESAT 2.4 31 May 07:59:03 08:01:40 20° 214° (SW) 08:04:13 2401.200-2431.200
STRAND 1 31 May 08:02:45 08:07:44 56° 259° (W) 08:12:46 437.568
CUBESAT XI-V 31 May 08:09:10 08:12:22 18° 268° (W) 08:15:25 437.345
AIST 1 31 May 08:16:57 08:21:21 76° 265° (W) 08:25:44
RS-15 31 May 08:18:51 08:29:04 51° 111° (ESE) 08:39:37 29.354- 29.394
CUTE-I 31 May 08:41:24 08:46:09 32° 290° (WNW) 08:50:48 437.470
PCSat 31 May 08:46:03 08:49:33 17° 48° (NE) 08:53:10 145.827
GOMX 1 31 May 08:48:48 08:52:21 19° 90° (E) 08:55:56 467.674
JUGNU 31 May 09:01:08 09:03:21 12° 169° (S) 09:05:38 437.505
Cubesat XI-IV 31 May 09:04:10 09:08:05 20° 294° (WNW) 09:11:48 437.490
BRITE-PL 31 May 09:09:11 09:14:36 52° 98° (E) 09:19:40 437.365/2234.400
Cosmos 2491 31 May 09:09:19 09:14:33 16° 279° (W) 09:19:10 435.465 / 435.565
HO-68 31 May 09:10:18 09:16:02 27° 94° (E) 09:21:58 435.675
M-CUBED/EXP-1 PRIME 31 May 09:12:10 09:13:47 12° 262° (W) 09:15:09 437.505
AUBIESAT-1 31 May 09:15:34 09:17:21 12° 262° (W) 09:18:51 437.475
DOVE 4 31 May 09:26:03 09:30:15 28° 94° (E) 09:34:19 437.250
CANX-2 31 May 09:38:57 09:42:53 39° 98° (E) 09:46:50 2200.000
CUTE 1.7 + AOD 2 31 May 09:41:46 09:45:41 37° 98° (E) 09:49:36 437.475
YUBILEINY 31 May 09:56:16 10:02:12 19° 296° (WNW) 10:07:39 435.215
SEEDS 31 May 09:56:43 10:00:45 46° 99° (E) 10:04:46 437.485
Cosmos 2504 31 May 09:57:54 10:05:51 53° 92° (E) 10:13:20 435.465 / 435.565
COMPASS 1 31 May 10:02:16 10:06:12 42° 98° (E) 10:10:09 437.405
CINEMA 3 31 May 10:06:05 10:10:14 34° 96° (E) 10:14:15 145.822/145.860
DELFI C3 31 May 10:07:37 10:08:49 11° 90° (E) 10:10:16 145.870
Oscar 11 31 May 10:08:14 10:11:09 18° 93° (E) 10:14:13 145.826/435.025
AAUSAT CUBESAT 2 31 May 10:10:14 10:14:12 44° 98° (E) 10:18:10 437.432
CUBEBUG 2 31 May 10:25:44 10:29:22 26° 95° (E) 10:32:57 437.445
GOMX 1 31 May 10:25:48 10:30:46 43° 288° (WNW) 10:35:23 467.674
SRMSAT 31 May 10:28:07 10:29:36 11° 168° (SSE) 10:31:11 437.500
PCSat 31 May 10:28:08 10:33:31 66° 245° (WSW) 10:38:52 145.827
ANTELSAT 31 May 10:30:31 10:34:22 27° 71° (ENE) 10:38:15 437.575/2403.000
RS-15 31 May 10:31:21 10:41:40 44° 313° (NW) 10:52:10 29.354- 29.394
POLYITAN 1 31 May 10:33:55 10:35:18 12° 66° (ENE) 10:36:55 437.675
JUGNU 31 May 10:48:08 10:51:36 16° 179° (S) 10:55:05 437.505
BRITE-PL 31 May 10:48:47 10:52:38 19° 294° (WNW) 10:56:10 437.365/2234.400
NANOSAT C BR1 31 May 10:56:48 10:59:57 21° 70° (ENE) 11:03:12 145.865
HO-68 31 May 10:57:12 11:04:06 52° 291° (WNW) 11:10:55 435.675
HUMSAT D 31 May 10:57:51 11:00:14 15° 92° (E) 11:02:48 437.325/437.525
FUNcube-1 31 May 10:59:31 11:03:29 38° 97° (E) 11:07:24 145.935
TIGRISAT 31 May 11:00:14 11:04:48 54° 75° (ENE) 11:09:19 435.000
UWE-3 31 May 11:02:24 11:06:39 57° 100° (E) 11:10:46 435.000/436.395/437.385
DOVE 4 31 May 11:03:46 11:07:56 26° 291° (WNW) 11:11:48 437.250
QB50P2 31 May 11:07:54 11:11:34 29° 71° (ENE) 11:15:19 145.880/145.840
CANX-2 31 May 11:16:00 11:18:31 15° 291° (WNW) 11:20:53 2200.000
DUCHIFAT 1 31 May 11:16:35 11:20:26 34° 72° (ENE) 11:24:20 145.980
BUGSAT 1 31 May 11:18:16 11:21:34 24° 70° (ENE) 11:24:59 437.445
POPSAT HIP 1 31 May 11:18:37 11:22:33 37° 73° (ENE) 11:26:32 437.405
CUTE 1.7 + AOD 2 31 May 11:18:43 11:21:19 16° 291° (WNW) 11:23:46 437.475
AISAT 31 May 11:21:00 11:23:37 16° 92° (E) 11:26:24 437.250
UNISAT 6 31 May 11:22:43 11:27:24 82° 259° (W) 11:32:03 437.425
UKube-1 31 May 11:33:40 11:37:45 39° 98° (E) 11:41:50 .
SEEDS 31 May 11:34:11 11:36:11 13° 292° (WNW) 11:37:58 437.485
SO-50 31 May 11:34:20 11:39:10 51° 56° (NE) 11:43:55 436.795
COMPASS 1 31 May 11:39:21 11:41:33 14° 292° (WNW) 11:43:35 437.405
DELFI C3 31 May 11:40:23 11:44:14 44° 286° (WNW) 11:48:03 145.870
ZACube-1 31 May 11:42:02 11:46:15 60° 285° (WNW) 11:50:21 437.345
Oscar 11 31 May 11:43:35 11:47:26 32° 288° (WNW) 11:51:14 145.826/435.025
CINEMA 3 31 May 11:43:53 11:47:12 19° 292° (WNW) 11:50:18 145.822/145.860
AAUSAT CUBESAT 2 31 May 11:47:27 11:49:28 13° 292° (WNW) 11:51:17 437.432
DX 1 31 May 11:49:28 11:53:51 68° 101° (E) 11:58:13 434.975-435.025
Cosmos 2504 31 May 11:52:42 11:59:34 28° 288° (WNW) 12:05:51 435.465 / 435.565
QB50P1 31 May 12:01:44 12:06:00 66° 259° (W) 12:10:17 145.935-145.965
CUBEBUG 2 31 May 12:02:31 12:05:58 23° 290° (WNW) 12:09:14 437.445
POLYITAN 1 31 May 12:06:32 12:10:46 56° 260° (W) 12:15:01 437.675
ANTELSAT 31 May 12:07:05 12:11:05 27° 265° (W) 12:14:57 437.575/2403.000
CUBEBUG 1 31 May 12:07:10 12:10:50 25° 95° (E) 12:14:34 437.445
SRMSAT 31 May 12:14:37 12:18:00 16° 178° (S) 12:21:23 437.500
50 SAT 31 May 12:20:04 12:23:57 90° 79° (E) 12:27:47 437.505
VELOX 1 31 May 12:22:30 12:27:00 78° 102° (ESE) 12:31:28 145.980
GONETS M04 31 May 12:26:43 12:33:46 29° 85° (E) 12:41:06
SPROUT 31 May 12:29:16 12:30:17 11° 89° (E) 12:31:35 437.525
NANOSAT C BR1 31 May 12:31:52 12:35:38 29° 264° (W) 12:39:21 145.865
HUMSAT D 31 May 12:32:24 12:36:10 34° 287° (WNW) 12:39:51 437.325/437.525
FUNcube-1 31 May 12:36:57 12:39:31 15° 292° (WNW) 12:41:54 145.935
JUGNU 31 May 12:37:11 12:39:53 13° 189° (S) 12:42:30 437.505
TIGRISAT 31 May 12:39:40 12:41:54 13° 270° (W) 12:43:51 435.000
UWE-3 31 May 12:41:25 12:42:42 11° 294° (WNW) 12:43:45 435.000/436.395/437.385
QB50P2 31 May 12:44:11 12:47:30 21° 266° (W) 12:50:42 145.880/145.840
ESTCUBE 1 31 May 12:44:33 12:49:07 82° 104° (ESE) 12:53:40 437.505/2401.250
CUSAT 1 31 May 12:50:36 12:58:00 62° 94° (E) 13:06:13 437.405
RS-15 31 May 12:51:58 12:58:18 16° 344° (NNW) 13:04:29 29.354- 29.394
DANDE 31 May 12:52:52 12:59:54 50° 91° (E) 13:08:03 436.750
DUCHIFAT 1 31 May 12:53:26 12:56:22 17° 267° (W) 12:59:09 145.980
BUGSAT 1 31 May 12:53:31 12:56:58 24° 265° (W) 13:00:22 437.445
POPSAT HIP 1 31 May 12:55:49 12:58:35 16° 268° (W) 13:01:11 437.405
AISAT 31 May 12:56:12 13:00:27 41° 287° (WNW) 13:04:37 437.250
UKube-1 31 May 13:10:49 13:13:36 16° 292° (WNW) 13:16:12 .
SO-50 31 May 13:16:05 13:19:21 17° 250° (WSW) 13:22:23 436.795
Oscar 19 31 May 13:26:19 13:30:53 33° 70° (ENE) 13:35:31 437.125/150
DX 1 31 May 13:28:59 13:29:36 10° 295° (WNW) 13:29:55 434.975-435.025
CUBEBUG 1 31 May 13:43:26 13:47:08 25° 289° (WNW) 13:50:42 437.445
ITAMSAT 1 31 May 13:52:57 13:56:05 17° 66° (ENE) 13:59:26 435.822/435.867
SPROUT 31 May 14:02:32 14:06:47 54° 285° (WNW) 14:10:58 437.525
SRMSAT 31 May 14:03:29 14:06:25 14° 188° (S) 14:09:17 437.500
TISAT 1 31 May 14:06:19 14:10:34 70° 284° (WNW) 14:14:46 437.305
ITUPSAT 1 31 May 14:07:49 14:10:42 16° 92° (E) 14:13:47 437.325
BEESAT 31 May 14:12:00 14:15:13 18° 93° (E) 14:18:36 436.000
Cosmos 2499 31 May 14:15:26 14:21:25 25° 87° (E) 14:27:23 435.465 / 435.565
O/OREOS (USA 219) 31 May 14:19:35 14:22:07 15° 101° (E) 14:24:51 437.305
SWISSCUBE 31 May 14:20:47 14:24:41 25° 95° (E) 14:28:40 437.505
GONETS M04 31 May 14:21:33 14:30:12 55° 282° (WNW) 14:38:49
CUSAT 1 31 May 14:34:43 14:41:18 28° 293° (WNW) 14:48:04 437.405
DANDE 31 May 14:36:36 14:43:28 34° 291° (WNW) 14:50:57 436.750
Gurwin Techsat 1B 31 May 14:57:28 15:02:42 68° 75° (ENE) 15:08:01 435.225
AO-7 31 May 15:00:34 15:06:21 22° 58° (ENE) 15:12:29 29.400- 29.500
Oscar 19 31 May 15:05:53 15:10:16 26° 265° (W) 15:14:33 437.125/150
RS-15 31 May 15:10:21 15:17:14 18° 21° (NNE) 15:24:40 29.354- 29.394
JAS-2 31 May 15:16:01 15:20:35 22° 68° (ENE) 15:24:59 435.910
STARS 31 May 15:26:28 15:26:41 10° 89° (E) 15:27:13 437.465
ITAMSAT 1 31 May 15:30:09 15:35:12 54° 260° (W) 15:40:17 435.822/435.867
ITUPSAT 1 31 May 15:44:17 15:48:52 45° 287° (WNW) 15:53:25 437.325
BEESAT 31 May 15:48:47 15:53:15 39° 288° (WNW) 15:57:40 436.000
